Location: Callanans Corners
(42.5326°N, 73.8846°W)
Time: 17:36:29
(UTC+00:00)

Cosmos 1814 Rocket - Pass Details

Date: 06 October 2022
Orbit: 745 x 786 km, 74.1° (Epoch: 05 December)

Event Time Altitude Azimuth Distance (km) Brightness Sun altitude
Rises 22:57:26 0° 343° (NNW) 3,245 7.5 -6.2°
Reaches altitude 10° 22:59:52 10° 347° (NNW) 2,308 6.6 -6.7°
Maximum altitude 23:05:02 59° 67° (ENE) 873 4.0 -7.6°
Drops below altitude 10° 23:10:06 10° 147° (SSE) 2,268 6.1 -8.5°
Sets 23:12:29 0° 151° (SSE) 3,183 6.9 -9.0°
